FW8857 Weather Reports


Display with metric or nautical units.
time (UTC)temp
F
wind
direction
speed
MPH
gust
MPH
rain 1hr
in
rain 24hr
in
rain mn
in
humidity
%
barometer
mb
20260505211938 63 254 3.0 10.0 0.00 0.00 0.00 71 1015.9
20260505211438 63 292 2.0 10.0 0.00 0.00 0.00 70 1015.9
20260505210936 62 233 3.0 6.0 0.00 0.00 0.00 72 1016.0
20260505210436 62 126 3.0 7.0 0.00 0.00 0.00 72 1016.0
20260505210156 62 356 3.0 7.0 0.00 0.00 0.00 73 1016.1
20260505205435 62 95 2.0 5.0 0.00 0.00 0.00 74 1016.1
20260505204936 61 53 3.0 7.0 0.00 0.00 0.00 74 1016.1
20260505204436 61 351 4.0 7.0 0.00 0.00 0.00 74 1016.2
20260505203932 61 348 3.0 7.0 0.00 0.00 0.00 74 1016.2
20260505203433 61 0 3.0 6.0 0.00 0.00 0.00 75 1016.2
20260505202933 61 310 4.0 8.0 0.00 0.00 0.00 74 1016.2
20260505202433 61 349 4.0 8.0 0.00 0.00 0.00 74 1016.2
20260505201933 61 13 2.0 6.0 0.00 0.00 0.00 74 1016.2
20260505201657 61 28 3.0 8.0 0.00 0.00 0.00 75 1016.3
20260505200933 61 345 3.0 8.0 0.00 0.00 0.00 75 1016.3
20260505200434 61 346 3.0 8.0 0.00 0.00 0.00 75 1016.3
20260505195933 61 4 3.0 6.0 0.00 0.00 0.00 75 1016.3
20260505195433 60 0 3.0 6.0 0.00 0.00 0.00 75 1016.3
20260505195208 60 22 3.0 6.0 0.00 0.00 0.00 76 1016.3
20260505194433 60 330 3.0 6.0 0.00 0.00 0.00 76 1016.4
20260505193934 60 74 4.0 6.0 0.00 0.00 0.00 77 1016.4
20260505193431 60 27 3.0 6.0 0.00 0.00 0.00 78 1016.4
20260505192931 59 15 3.0 6.0 0.00 0.00 0.00 79 1016.5
20260505192431 60 23 3.0 6.0 0.00 0.00 0.00 79 1016.4
20260505191931 60 13 2.0 6.0 0.00 0.00 0.00 78 1016.5
20260505191431 60 309 2.0 6.0 0.00 0.00 0.00 75 1016.4
20260505191150 60 353 2.0 6.0 0.00 0.00 0.00 76 1016.5
20260505190431 59 300 2.0 5.0 0.00 0.00 0.00 76 1016.5
20260505185931 59 288 1.0 4.0 0.00 0.00 0.00 76 1016.5
20260505185656 59 0 1.0 4.0 0.00 0.00 0.00 77 1016.4
20260505184932 59 323 1.0 4.0 0.00 0.00 0.00 77 1016.4
20260505184653 59 0 1.0 4.0 0.00 0.00 0.00 78 1016.4
20260505183931 59 292 1.0 4.0 0.00 0.00 0.00 78 1016.5
20260505183431 59 298 1.0 4.0 0.00 0.00 0.00 78 1016.5
20260505182929 59 255 2.0 5.0 0.00 0.00 0.00 78 1016.5
20260505182429 58 283 2.0 5.0 0.00 0.00 0.00 79 1016.5
20260505181929 58 236 2.0 6.0 0.00 0.00 0.00 78 1016.4
20260505181429 58 298 3.0 6.0 0.00 0.00 0.00 78 1016.4
20260505180929 58 184 2.0 6.0 0.00 0.00 0.00 79 1016.4
20260505180429 58 181 2.0 5.0 0.00 0.00 0.00 78 1016.3
20260505175930 58 251 1.0 5.0 0.00 0.00 0.00 77 1016.3
20260505175429 58 331 1.0 4.0 0.00 0.00 0.00 78 1016.3
20260505174930 58 297 2.0 6.0 0.00 0.00 0.00 78 1016.3
20260505174429 58 284 2.0 6.0 0.00 0.00 0.00 78 1016.3
20260505174158 58 275 2.0 6.0 0.00 0.00 0.00 78 1016.3
20260505173429 58 259 2.0 6.0 0.00 0.00 0.00 78 1016.3
20260505172927 58 207 3.0 6.0 0.00 0.00 0.00 79 1016.3
20260505172427 58 195 3.0 7.0 0.00 0.00 0.00 79 1016.2
20260505172146 58 288 4.0 7.0 0.00 0.00 0.00 78 1016.2
20260505171424 58 196 3.0 7.0 0.00 0.00 0.00 78 1016.1
20260505170924 58 186 2.0 4.0 0.00 0.00 0.00 77 1016.1
20260505170424 58 141 2.0 4.0 0.00 0.00 0.00 78 1016.1
20260505165924 58 303 2.0 5.0 0.00 0.00 0.00 78 1016.0
20260505165651 58 291 2.0 5.0 0.00 0.00 0.00 78 1016.0
20260505164924 58 2 2.0 5.0 0.00 0.00 0.00 80 1016.0
20260505164423 58 153 2.0 5.0 0.00 0.00 0.00 80 1016.0
20260505163924 58 189 2.0 5.0 0.00 0.00 0.00 80 1016.0
20260505163424 58 280 1.0 6.0 0.00 0.00 0.00 80 1016.0
20260505162924 58 294 1.0 6.0 0.00 0.00 0.00 80 1016.0
20260505162425 57 279 2.0 5.0 0.00 0.00 0.00 81 1015.9
20260505162411 57 243 2.0 6.0 0.00 0.00 0.00 81 1015.9
20260505161651 57 180 2.0 6.0 0.00 0.00 0.00 82 1015.9
20260505160923 57 305 2.0 6.0 0.00 0.00 0.00 82 1015.9
20260505160427 56 0 2.0 6.0 0.00 0.00 0.00 82 1015.9
20260505152919 56 205 2.0 5.0 0.00 0.00 0.00 85 1015.8
20260505152419 55 267 2.0 5.0 0.00 0.00 0.00 85 1015.8
20260505151920 55 198 1.0 5.0 0.00 0.00 0.00 85 1015.8
20260505151419 55 254 1.0 4.0 0.00 0.00 0.00 85 1015.8
20260505150919 55 0 2.0 5.0 0.00 0.00 0.00 86 1015.8
20260505150648 55 291 2.0 5.0 0.00 0.00 0.00 86 1015.7
20260505140631 55 151 1.0 4.0 0.00 0.00 0.00 85 1015.1
20260505124909 55 273 2.0 5.0 0.00 0.00 0.00 85 1014.7
20260505124406 55 316 2.0 5.0 0.00 0.00 0.00 85 1014.7
20260505123906 55 272 1.0 5.0 0.00 0.00 0.00 85 1014.7
20260505123403 55 297 1.0 4.0 0.00 0.00 0.00 85 1014.6
20260505122903 55 193 1.0 4.0 0.00 0.00 0.00 85 1014.7
20260505122403 55 214 1.0 3.0 0.00 0.00 0.00 85 1014.7
20260505122126 55 302 1.0 3.0 0.00 0.00 0.00 85 1014.7
20260505121623 55 284 1.0 3.0 0.00 0.00 0.00 85 1014.7
20260505121126 55 305 1.0 4.0 0.00 0.00 0.00 85 1014.6
20260505120401 55 197 2.0 4.0 0.00 0.00 0.00 85 1014.6
20260505115901 55 287 2.0 5.0 0.00 0.00 0.00 84 1014.6
20260505115402 55 284 1.0 5.0 0.00 0.00 0.00 84 1014.6
20260505114901 55 279 1.0 2.0 0.00 0.00 0.00 84 1014.6
20260505114402 55 252 1.0 3.0 0.00 0.00 0.00 84 1014.6
20260505113900 55 286 1.0 3.0 0.00 0.00 0.00 84 1014.6
20260505113359 55 255 1.0 2.0 0.00 0.00 0.00 84 1014.6
20260505112859 55 69 1.0 2.0 0.00 0.00 0.00 84 1014.6
20260505112359 55 0 1.0 3.0 0.00 0.00 0.00 84 1014.5
20260505111856 55 192 1.0 3.0 0.00 0.00 0.00 84 1014.6
20260505111356 55 287 0.0 2.0 0.00 0.00 0.00 84 1014.6
20260505111122 55 0 0.0 2.0 0.00 0.00 0.00 85 1014.5
20260505110627 55 325 0.0 2.0 0.00 0.00 0.00 85 1014.5
20260505110112 55 185 0.0 4.0 0.00 0.00 0.00 85 1014.4
20260505101849 55 256 1.0 3.0 0.00 0.00 0.00 84 1014.1
20260505101348 55 179 1.0 3.0 0.00 0.00 0.00 84 1014.1
20260505100848 55 324 1.0 5.0 0.00 0.00 0.00 84 1014.1
20260505100345 55 49 1.0 5.0 0.00 0.00 0.00 84 1014.1
20260505095845 56 1 1.0 3.0 0.00 0.00 0.00 84 1014.1
20260505095345 56 0 1.0 3.0 0.00 0.00 0.00 84 1014.1
20260505094843 55 282 1.0 3.0 0.00 0.00 0.00 84 1014.1
20260505094606 55 313 0.0 3.0 0.00 0.00 0.00 85 1014.0
20260505093843 55 0 0.0 2.0 0.00 0.00 0.00 86 1014.0
20260505093340 55 274 0.0 2.0 0.00 0.00 0.00 87 1014.0
20260505092840 55 0 1.0 2.0 0.00 0.00 0.00 87 1014.0
20260505092601 55 0 1.0 3.0 0.00 0.00 0.00 87 1013.9
20260505092103 56 341 2.0 3.0 0.00 0.00 0.00 86 1013.9
20260505091340 56 356 2.0 3.0 0.00 0.00 0.00 86 1013.8
20260505090841 56 331 2.0 3.0 0.00 0.00 0.00 86 1013.8
20260505090341 56 34 2.0 4.0 0.00 0.00 0.00 86 1013.7
20260505085841 56 0 2.0 4.0 0.00 0.00 0.00 86 1013.7
20260505085826 56 356 2.0 3.0 0.00 0.00 0.00 86 1013.6
20260505084838 56 354 2.0 4.0 0.00 0.00 0.00 86 1013.6
20260505084338 56 36 2.0 4.0 0.00 0.00 0.00 86 1013.7
20260505083838 56 338 3.0 4.0 0.00 0.00 0.00 85 1013.7
20260505083338 56 35 3.0 4.0 0.00 0.00 0.00 85 1013.7
20260505082838 56 341 3.0 5.0 0.00 0.00 0.00 85 1013.6
20260505082834 56 10 3.0 5.0 0.00 0.00 0.00 84 1013.5
20260505081838 57 3 3.0 5.0 0.00 0.00 0.00 84 1013.5
20260505081338 57 347 3.0 5.0 0.00 0.00 0.00 84 1013.5
20260505080838 57 357 3.0 5.0 0.00 0.00 0.00 83 1013.5
20260505080338 57 22 3.0 6.0 0.00 0.00 0.00 83 1013.5
20260505075838 57 22 4.0 6.0 0.00 0.00 0.00 83 1013.4
20260505075338 58 24 3.0 6.0 0.00 0.00 0.00 82 1013.5
20260505074839 58 39 4.0 6.0 0.00 0.00 0.00 82 1013.4
20260505074605 58 28 4.0 6.0 0.00 0.00 0.00 82 1013.4
20260505073837 58 39 3.0 6.0 0.00 0.00 0.00 81 1013.2
20260505073335 59 15 3.0 4.0 0.00 0.00 0.00 80 1013.1
20260505072836 59 29 2.0 4.0 0.00 0.00 0.00 79 1013.1
20260505072336 59 275 1.0 3.0 0.00 0.00 0.00 78 1013.0
20260505072320 59 298 1.0 5.0 0.00 0.00 0.00 79 1013.0
20260505071337 59 0 2.0 5.0 0.00 0.00 0.00 78 1012.9
20260505070837 60 272 2.0 6.0 0.00 0.00 0.00 78 1012.8
20260505070336 60 273 1.0 6.0 0.00 0.00 0.00 78 1012.8
20260505070104 60 276 1.0 2.0 0.00 0.00 0.00 78 1012.7
20260505065336 60 271 0.0 2.0 0.00 0.00 0.00 78 1012.7
20260505064834 60 303 1.0 3.0 0.00 0.00 0.00 77 1012.6
20260505064334 60 311 1.0 3.0 0.00 0.00 0.00 77 1012.5
20260505063834 60 277 1.0 5.0 0.00 0.00 0.00 76 1012.4
20260505063604 60 217 2.0 5.0 0.00 0.00 0.00 76 1012.4
20260505062838 61 269 2.0 5.0 0.00 0.00 0.00 76 1012.3
20260505062337 61 224 1.0 5.0 0.00 0.00 0.00 76 1012.3
20260505062056 61 294 1.0 2.0 0.00 0.00 0.00 78 1012.2
20260505061338 61 328 1.0 4.0 0.00 0.00 0.00 77 1012.1
20260505060837 62 309 1.0 4.0 0.00 0.00 0.00 76 1012.1
20260505060337 62 313 1.0 2.0 0.00 0.00 0.00 76 1012.0
20260505060324 62 309 1.0 3.0 0.00 0.00 0.00 75 1012.0
20260505055338 62 319 2.0 4.0 0.00 0.00 0.00 74 1012.0
20260505054838 63 326 2.0 4.0 0.00 0.00 0.00 74 1011.9
20260505054559 63 326 1.0 3.0 0.00 0.00 0.00 73 1011.9
20260505053838 63 341 1.0 3.0 0.00 0.00 0.00 73 1011.9
20260505053338 64 225 2.0 4.0 0.00 0.00 0.00 72 1011.9
20260505053055 64 303 2.0 4.0 0.00 0.00 0.00 71 1011.8
20260505052331 64 314 3.0 5.0 0.00 0.00 0.00 71 1011.8
20260505051832 64 254 3.0 5.0 0.00 0.00 0.00 70 1011.8
20260505051332 65 285 3.0 6.0 0.00 0.00 0.00 70 1011.8
20260505050832 65 324 3.0 8.0 0.00 0.00 0.00 69 1011.7
20260505050332 65 307 3.0 8.0 0.00 0.00 0.00 69 1011.6
20260505041329 68 285 1.0 5.0 0.00 0.00 0.00 69 1010.9
20260505040826 68 272 3.0 8.0 0.00 0.00 0.00 69 1010.9
20260505040326 69 276 3.0 8.0 0.00 0.00 0.00 68 1010.8
20260505035827 69 245 3.0 8.0 0.00 0.00 0.00 69 1010.7
20260505035327 69 236 3.0 7.0 0.00 0.00 0.00 70 1010.5
20260505034827 69 269 3.0 8.0 0.00 0.00 0.00 70 1010.5
20260505034327 69 208 3.0 8.0 0.00 0.00 0.00 69 1010.4
20260505033827 69 192 3.0 6.0 0.00 0.00 0.00 69 1010.3
20260505033327 69 214 3.0 6.0 0.00 0.00 0.00 68 1010.2
20260505032827 69 206 3.0 7.0 0.00 0.00 0.00 68 1010.2
20260505032327 69 270 3.0 7.0 0.00 0.00 0.00 68 1010.1
20260505031828 70 272 3.0 7.0 0.00 0.00 0.00 68 1010.1
20260505031328 70 229 3.0 7.0 0.00 0.00 0.00 67 1010.0
20260505030824 70 233 3.0 7.0 0.00 0.00 0.00 67 1010.0
20260505030325 70 242 3.0 9.0 0.00 0.00 0.00 67 1009.9
20260505025822 70 264 3.0 9.0 0.00 0.00 0.00 67 1009.9
20260505025322 71 212 3.0 6.0 0.00 0.00 0.00 67 1009.8
20260505024821 71 226 3.0 8.0 0.00 0.00 0.00 66 1009.8
20260505024320 71 213 3.0 8.0 0.00 0.00 0.00 65 1009.7
20260505023821 71 258 2.0 6.0 0.00 0.00 0.00 65 1009.7
20260505023321 72 271 2.0 5.0 0.00 0.00 0.00 64 1009.7
20260505022821 72 203 3.0 6.0 0.00 0.00 0.00 64 1009.8
20260505022320 73 264 3.0 6.0 0.00 0.00 0.00 63 1009.7
20260505021821 73 250 3.0 6.0 0.00 0.00 0.00 62 1009.7
20260505021320 73 254 3.0 6.0 0.00 0.00 0.00 61 1009.7
20260505020821 73 226 3.0 7.0 0.00 0.00 0.00 61 1009.7
20260505020544 73 256 2.0 8.0 0.00 0.00 0.00 60 1009.8
20260505020046 73 243 4.0 9.0 0.00 0.00 0.00 61 1009.8
20260505015543 73 199 4.0 9.0 0.00 0.00 0.00 61 1009.8
20260505014820 73 219 4.0 9.0 0.00 0.00 0.00 60 1009.8
20260505014321 74 212 4.0 9.0 0.00 0.00 0.00 60 1009.8
20260505013821 74 261 4.0 8.0 0.00 0.00 0.00 59 1009.8
20260505013321 74 263 4.0 8.0 0.00 0.00 0.00 59 1009.8
20260505012820 74 239 3.0 8.0 0.00 0.00 0.00 60 1010.0
20260505012321 74 203 3.0 8.0 0.00 0.00 0.00 59 1010.0
20260505011821 74 206 4.0 8.0 0.00 0.00 0.00 60 1010.0
20260505011321 74 261 4.0 9.0 0.00 0.00 0.00 60 1010.1
20260505010821 74 184 4.0 9.0 0.00 0.00 0.00 59 1010.1
20260505010321 74 227 3.0 8.0 0.00 0.00 0.00 58 1010.1
20260505005820 74 305 3.0 9.0 0.00 0.00 0.00 58 1010.0
20260505005321 75 268 3.0 9.0 0.00 0.00 0.00 58 1010.0
20260505004821 75 260 3.0 8.0 0.00 0.00 0.00 57 1010.1
20260505004320 75 273 4.0 8.0 0.00 0.00 0.00 57 1010.1
20260505003820 75 236 4.0 8.0 0.00 0.00 0.00 57 1010.2
20260505003320 74 283 4.0 8.0 0.00 0.00 0.00 56 1010.2
20260505002821 74 248 4.0 8.0 0.00 0.00 0.00 57 1010.3
20260505002321 74 232 4.0 10.0 0.00 0.00 0.00 57 1010.3
20260505002043 74 199 5.0 11.0 0.00 0.00 0.00 57 1010.2
20260505001320 74 278 4.0 11.0 0.00 0.00 0.00 56 1010.3
20260505000820 75 266 4.0 9.0 0.00 0.00 0.00 55 1010.3
20260505000551 74 268 4.0 11.0 0.00 0.00 0.00 55 1010.3
20260504235821 74 253 4.0 11.0 0.00 0.00 0.00 56 1010.4
20260504235321 74 281 3.0 8.0 0.00 0.00 0.00 56 1010.4
20260504234821 74 158 3.0 9.0 0.00 0.00 0.00 57 1010.4
20260504234321 74 187 4.0 9.0 0.00 0.00 0.00 56 1010.4
20260504233820 74 259 4.0 9.0 0.00 0.00 0.00 54 1010.4
20260504233320 73 286 4.0 9.0 0.00 0.00 0.00 55 1010.5
20260504232821 73 218 4.0 9.0 0.00 0.00 0.00 56 1010.5
20260504232321 73 269 4.0 9.0 0.00 0.00 0.00 57 1010.5
20260504231821 73 246 4.0 9.0 0.00 0.00 0.00 57 1010.5
20260504231321 73 141 5.0 9.0 0.00 0.00 0.00 57 1010.6
20260504230821 73 154 4.0 9.0 0.00 0.00 0.00 57 1010.6
20260504230549 73 142 3.0 6.0 0.00 0.00 0.00 55 1010.7
20260504225821 73 151 3.0 8.0 0.00 0.00 0.00 56 1010.8
20260504225321 73 173 3.0 8.0 0.00 0.00 0.00 57 1010.8
20260504224821 72 263 3.0 9.0 0.00 0.00 0.00 57 1010.9
20260504224319 72 193 3.0 9.0 0.00 0.00 0.00 57 1011.0
20260504223820 72 263 3.0 9.0 0.00 0.00 0.00 58 1011.0
20260504223320 72 164 3.0 9.0 0.00 0.00 0.00 57 1011.0
20260504223046 72 270 2.0 8.0 0.00 0.00 0.00 56 1011.1
20260504222319 72 254 2.0 7.0 0.00 0.00 0.00 56 1011.3
20260504221820 71 9 3.0 8.0 0.00 0.00 0.00 57 1011.3
20260504221320 71 221 4.0 9.0 0.00 0.00 0.00 58 1011.4
20260504220819 70 139 4.0 10.0 0.00 0.00 0.00 59 1011.4
20260504220319 71 299 4.0 11.0 0.00 0.00 0.00 59 1011.4
20260504215820 71 218 3.0 11.0 0.00 0.00 0.00 58 1011.5
20260504215320 70 310 4.0 8.0 0.00 0.00 0.00 59 1011.5
20260504214819 70 265 4.0 6.0 0.00 0.00 0.00 58 1011.6
20260504214319 70 261 4.0 9.0 0.00 0.00 0.00 60 1011.6
20260504213819 69 292 4.0 9.0 0.00 0.00 0.00 61 1011.6
20260504213318 69 226 3.0 9.0 0.00 0.00 0.00 61 1011.8
20260504213045 69 190 3.0 7.0 0.00 0.00 0.00 60 1011.9
20260504212318 68 241 3.0 8.0 0.00 0.00 0.00 61 1011.9